Flag for Norway Weather past 2 weeks in Bodø, Norway

Now
64 °F

Partly sunny.


Feels Like: 64 °F
Forecast: 54 / 62 °F
Wind: 10 mph from Northeast

Location: Bodo Vi

Current Time: Aug 20, 2014 at 3:41:01 PM

Latest Report: Aug 20, 2014 at 2:50 PM


Visibility: N/A

Pressure: 29.45 "Hg

Humidity: 64%

Dew point: 52 °F

Location of BodøLocation

Historic Weather in Bodø — Graph

°F

Bodø temperature yesterday

Maximum temperature yesterday: 64 °F (at 3:20 PM)
Minimum temperature yesterday: 52 °F (at 2:50 AM)
Average temperature yesterday: 57 °F

Past Weeks' High & Low Weather Summary

 TemperatureHumidityPressure
High73 °F (Aug 11, 2:50 PM)100% (Aug 5, 8:50 PM)30.09 "Hg (Aug 5, 8:50 PM)
Low45 °F (Aug 17, 5:20 AM)47% (Aug 11, 4:50 PM)29.36 "Hg (Aug 12, 4:50 PM)
Average58 °F81%29.66 "Hg
* Reported Aug 5 2:20 PM — Aug 20 2:20 PM, Bodø, Weather by CustomWeather, © 2014

Note: Actual official high and low records may vary slightly from our data, if they occured in-between our weather recording intervals... More about our weather records

Advertising

Bodø weather history for previous 24 hours

 ConditionsComfort  
Time TempWeatherWind HumidityBarometerVisibility
2:20 PM
Aug 20
64 °FPartly sunny.12 mph68%29.45 "HgN/A
1:50 PM63 °FPartly sunny.8 mph68%29.45 "HgN/A
1:20 PM63 °FPartly sunny.13 mph68%29.45 "HgN/A
12:50 PM63 °FPartly sunny.14 mph64%29.42 "HgN/A
12:20 PM63 °FScattered clouds.13 mph68%29.42 "HgN/A
11:50 AM61 °FScattered clouds.13 mph72%29.42 "HgN/A
11:20 AM59 °FScattered clouds.14 mph77%29.42 "HgN/A
10:50 AM61 °FSunny.13 mph72%29.42 "Hg10 mi
10:20 AM59 °FSunny.15 mph72%29.42 "Hg10 mi
9:50 AM59 °FSunny.12 mph72%29.42 "Hg10 mi
9:20 AM59 °FSunny.9 mph72%29.42 "Hg10 mi
8:50 AM59 °FSunny.10 mph72%29.42 "Hg10 mi
8:20 AM57 °FSunny.9 mph77%29.42 "Hg10 mi
7:50 AM57 °FSunny.10 mph77%29.42 "Hg10 mi
7:20 AM59 °FSunny.12 mph72%29.42 "Hg10 mi
6:50 AM57 °FSunny.10 mph72%29.39 "Hg10 mi
6:20 AM57 °FSunny.10 mph72%29.39 "Hg10 mi
5:50 AM57 °FSunny.10 mph72%29.39 "Hg10 mi
5:20 AM55 °FClear.12 mph77%29.39 "Hg10 mi
4:50 AM55 °FClear.5 mph77%29.39 "Hg10 mi
3:50 AM57 °FClear.12 mph72%29.39 "Hg10 mi
2:50 AM55 °FClear.9 mph77%29.39 "Hg10 mi
1:50 AM57 °FClear.12 mph72%29.39 "Hg10 mi
12:50 AM54 °FClear.8 mph82%29.39 "Hg10 mi
11:50 PM
Aug 19
54 °FClear.8 mph77%29.39 "Hg10 mi
11:20 PM57 °FClear.10 mph72%29.39 "Hg10 mi
10:50 PM59 °FClear.9 mph68%29.39 "Hg10 mi
10:20 PM55 °FPassing clouds.5 mph77%29.39 "HgN/A
9:50 PM55 °FPassing clouds.5 mph82%29.39 "HgN/A
9:20 PM55 °FPassing clouds.3 mph82%29.39 "HgN/A
8:50 PM55 °FPassing clouds.3 mph82%29.39 "HgN/A
8:20 PM57 °FPassing clouds.8 mph77%29.39 "HgN/A
7:50 PM59 °FScattered clouds.7 mph72%29.39 "HgN/A
7:20 PM59 °FScattered clouds.8 mph77%29.36 "HgN/A
6:50 PM59 °FScattered clouds.9 mph77%29.36 "HgN/A
6:20 PM61 °FScattered clouds.8 mph72%29.36 "HgN/A
5:50 PM61 °FScattered clouds.8 mph72%29.36 "HgN/A
5:20 PM61 °FScattered clouds.9 mph72%29.36 "HgN/A
4:50 PM63 °FScattered clouds.10 mph68%29.36 "HgN/A
4:20 PM63 °FScattered clouds.9 mph64%29.36 "HgN/A
3:50 PM64 °FScattered clouds.9 mph64%29.36 "HgN/A
3:20 PM64 °FScattered clouds.9 mph64%29.36 "HgN/A
Weather by CustomWeather, © 2014

See weather overviewHow to use our weather pages